GW4652 Weather Reports


Display with metric or nautical units.
time (UTC)temp
F
wind
direction
speed
MPH
gust
MPH
rain 1hr
in
rain 24hr
in
rain mn
in
humidity
%
barometer
mb
20260507104506 53 41 3.0 8.0 0.00 0.00 0.00 78 1022.2
20260507103018 53 51 3.0 8.0 0.00 0.00 0.00 78 1022.2
20260507101530 53 51 2.0 6.0 0.00 0.00 0.00 77 1022.3
20260507100030 53 51 3.0 6.0 0.00 0.00 0.00 78 1022.3
20260507094520 53 49 3.0 5.0 0.00 0.00 0.00 79 1022.4
20260507093014 53 70 3.0 5.0 0.00 0.00 0.00 79 1022.6
20260507091519 54 50 1.0 4.0 0.00 0.00 0.00 79 1022.7
20260507090014 54 36 1.0 6.0 0.00 0.00 0.00 79 1022.8
20260507084509 54 46 1.0 5.0 0.00 0.00 0.00 80 1022.8
20260507083012 54 55 2.0 6.0 0.00 0.00 0.00 80 1022.8
20260507081517 54 28 3.0 10.0 0.00 0.00 0.00 80 1022.8
20260507080022 54 77 3.0 9.0 0.00 0.00 0.00 80 1022.8
20260507074524 54 46 0.0 5.0 0.00 0.00 0.00 81 1022.7
20260507073006 54 340 1.0 5.0 0.00 0.00 0.00 81 1022.6
20260507071512 54 74 3.0 6.0 0.00 0.00 0.00 81 1022.6
20260507070016 54 46 4.0 9.0 0.00 0.00 0.00 81 1022.6
20260507064511 54 73 4.0 9.0 0.00 0.00 0.00 82 1022.8
20260507063011 55 76 3.0 8.0 0.00 0.00 0.00 82 1022.8
20260507061508 55 49 2.0 11.0 0.00 0.00 0.00 81 1022.8
20260507060019 55 65 4.0 11.0 0.00 0.00 0.00 81 1022.7
20260507054520 55 35 4.0 13.0 0.00 0.00 0.00 81 1022.8
20260507053022 56 57 5.0 12.0 0.00 0.00 0.00 80 1022.8
20260507051520 56 36 4.0 12.0 0.00 0.00 0.00 80 1022.7
20260507050009 56 55 8.0 14.0 0.00 0.00 0.00 79 1022.7
20260507044513 57 39 6.0 13.0 0.00 0.00 0.00 79 1022.7
20260507043012 58 51 5.0 14.0 0.00 0.00 0.00 79 1022.5
20260507041520 58 9 5.0 12.0 0.00 0.00 0.00 79 1022.3
20260507040024 58 340 5.0 13.0 0.00 0.00 0.00 79 1022.1
20260507034515 58 20 5.0 10.0 0.00 0.00 0.00 79 1021.9
20260507033016 59 40 7.0 13.0 0.00 0.00 0.00 78 1022.0
20260507031525 59 30 7.0 0.0 0.00 0.00 0.00 78 1021.7
20260507030017 60 290 0.0 10.0 0.00 0.00 0.00 68 1021.4
20260507024512 61 315 0.0 8.0 0.00 0.00 0.00 66 1021.3
20260507023012 62 313 1.0 9.0 0.00 0.00 0.00 65 1021.3
20260507021520 62 286 1.0 10.0 0.00 0.00 0.00 65 1021.2
20260507020024 63 316 2.0 9.0 0.00 0.00 0.00 64 1021.3
20260507014539 64 313 1.0 19.0 0.00 0.00 0.00 63 1021.3
20260507013021 65 310 0.0 11.0 0.00 0.00 0.00 62 1021.1
20260507011519 67 285 1.0 8.0 0.00 0.00 0.00 59 1021.0
20260507010020 70 210 0.0 0.0 0.00 0.00 0.00 56 1021.0
20260507004532 70 79 0.0 0.0 0.00 0.00 0.00 55 1020.9
20260507003014 69 79 0.0 0.0 0.00 0.00 0.00 56 1021.1
20260507001514 69 78 0.0 0.0 0.00 0.00 0.00 58 1021.3
20260507000014 69 78 0.0 2.0 0.00 0.00 0.00 58 1021.3
20260506234506 69 229 0.0 2.0 0.00 0.00 0.00 55 1021.3
20260506233008 69 229 0.0 1.0 0.00 0.00 0.00 55 1021.3
20260506231511 69 229 0.0 2.0 0.00 0.00 0.00 54 1021.5
20260506230003 69 289 0.0 2.0 0.00 0.00 0.00 56 1021.6
20260506224520 67 15 0.0 1.0 0.00 0.00 0.00 59 1021.8
20260506223005 67 51 0.0 0.0 0.00 0.00 0.00 60 1022.0
20260506221508 67 87 0.0 1.0 0.00 0.00 0.00 60 1022.1
20260506220019 67 116 0.0 0.0 0.00 0.00 0.00 61 1022.0
20260506214511 66 163 0.0 0.0 0.00 0.00 0.00 62 1021.9
20260506213008 65 69 0.0 0.0 0.00 0.00 0.00 65 1022.2
20260506211510 64 65 0.0 2.0 0.00 0.00 0.00 67 1022.3
20260506210014 65 220 0.0 0.0 0.00 0.00 0.00 65 1022.2
20260506204518 64 115 0.0 0.0 0.00 0.00 0.00 67 1022.2
20260506203027 63 120 0.0 0.0 0.00 0.00 0.00 71 1022.4
20260506201531 62 101 0.0 0.0 0.00 0.00 0.00 71 1022.6
20260506200012 61 99 0.0 4.0 0.00 0.00 0.00 71 1022.7
20260506194515 61 74 0.0 2.0 0.00 0.00 0.00 71 1022.7
20260506193011 62 104 0.0 1.0 0.00 0.00 0.00 71 1022.7
20260506191507 62 98 0.0 0.0 0.00 0.00 0.00 71 1022.6
20260506190028 60 121 0.0 2.0 0.00 0.00 0.00 73 1022.5
20260506184510 60 195 0.0 4.0 0.00 0.00 0.00 73 1022.6
20260506183028 60 200 0.0 2.0 0.00 0.00 0.00 74 1022.5
20260506181522 59 176 0.0 0.0 0.00 0.00 0.00 75 1022.6
20260506180018 0 0.0 0.0 0.00 0.00 0.00 1022.7
20260506174516 58 210 3.0 0.0 0.00 0.00 0.00 84 1022.4
20260506173027 57 246 2.0 5.0 0.00 0.00 0.00 86 1022.4
20260506171511 57 1.0 5.0 0.00 0.00 0.00 86 1022.5
20260506170030 56 224 3.0 0.0 0.00 0.00 0.00 86 1022.3
20260506164524 0 0.0 0.0 0.00 0.00 0.00 1022.4
20260506163025 0 0.0 0.0 0.00 0.00 0.00 1022.1
20260506161522 0 0.0 0.0 0.00 0.00 0.00 1022.2
20260506160021 0 0.0 0.0 0.00 0.00 0.00 1021.4
20260506154522 0 0.0 0.0 0.00 0.00 0.00 1021.7
20260506153016 0 0.0 0.0 0.00 0.00 0.00 1022.3
20260506151526 55 1.0 3.0 0.00 0.00 0.00 90 1022.4
20260506150031 55 275 0.0 1.0 0.00 0.00 0.00 89 1022.3
20260506144526 55 285 0.0 4.0 0.00 0.00 0.00 89 1022.1
20260506143032 55 240 2.0 3.0 0.00 0.00 0.00 89 1021.3
20260506141524 55 211 2.0 5.0 0.00 0.00 0.00 90 1021.1
20260506140026 55 202 0.0 5.0 0.00 0.00 0.00 90 1021.1
20260506134522 55 213 1.0 4.0 0.00 0.00 0.00 90 1021.0
20260506133020 55 220 1.0 2.0 0.00 0.00 0.00 89 1021.0
20260506131520 55 205 0.0 3.0 0.00 0.00 0.00 89 1020.8
20260506130025 56 201 0.0 2.0 0.00 0.00 0.00 89 1020.8
20260506124527 56 209 2.0 4.0 0.00 0.00 0.00 88 1020.7
20260506123031 56 64 0.0 0.0 0.00 0.00 0.00 86 1020.7
20260506121528 56 64 0.0 1.0 0.00 0.00 0.00 85 1020.7
20260506120004 56 64 0.0 0.0 0.00 0.00 0.00 85 1020.6
20260506114506 56 84 0.0 0.0 0.00 0.00 0.00 85 1020.4
20260506113010 56 28 1.0 3.0 0.00 0.00 0.00 85 1020.3
20260506111517 57 49 0.0 3.0 0.00 0.00 0.00 85 1020.2
20260506110008 57 26 1.0 3.0 0.00 0.00 0.00 85 1020.0